Location: Palmerston North
(40.3500°S, 175.6170°E)
Time: 22:46:32
(UTC+12:00)

Lacrosse 5 - Pass Details

Date: 24 January 2019
Orbit: 712 x 726 km, 57.0° (Epoch: 16 April)

Event Time Altitude Azimuth Distance (km) Brightness Sun altitude
Rises 22:52:27 0° 240° (WSW) 3,151 6.5 -20.1°
Reaches altitude 10° 22:55:35 10° 259° (W) 2,219 5.1 -20.5°
Maximum altitude 22:58:50 17° 299° (WNW) 1,767 4.0 -20.9°
Enters shadow 23:01:03 13° 328° (NNW) 1,977 3.9 -21.1°
